Volver al catálogo

YAOGAN-35 C

ActivoMilitarVLEO
NORAD 49393·PAYLOAD·🇨🇳 China

Lanzado Nov 6, 2021 desde Xichang Satellite Launch Center

Loading…

Próximos Pases (próximas 24 horas)

TLE

ActualizadoSource: Space-Track

Época: Sep 14, 2026, 15:43 UTC

1 49393U 21101D   26257.65492104  .00009596  00000-0  38412-3 0  9996
2 49393  35.0058  61.7391 0004235 122.4025 237.7100 15.24301795270666

Sigue YAOGAN-35 C en tiempo real con AllMySat

Download on the App Store